FW2512 Weather Reports


Display with metric or nautical units.
time (UTC)temp
F
wind
direction
speed
MPH
gust
MPH
rain 1hr
in
rain 24hr
in
rain mn
in
humidity
%
barometer
mb
20260508174518 67 154 3.0 7.0 0.00 0.00 0.00 32 1017.5
20260508173016 66 322 3.0 10.0 0.00 0.00 0.00 37 1017.8
20260508171517 66 198 3.0 11.0 0.00 0.00 0.00 33 1017.7
20260508170011 65 182 3.0 9.0 0.00 0.00 0.00 33 1018.1
20260508164519 65 216 2.0 6.0 0.00 0.00 0.00 36 1018.3
20260508163014 65 176 3.0 7.0 0.00 0.00 0.00 31 1018.3
20260508161509 64 227 5.0 14.0 0.00 0.00 0.00 34 1018.6
20260508160005 64 234 4.0 6.0 0.00 0.00 0.00 37 1018.9
20260508154504 63 338 2.0 6.0 0.00 0.00 0.00 37 1018.9
20260508153004 64 319 2.0 6.0 0.00 0.00 0.00 39 1019.0
20260508151602 63 132 1.0 7.0 0.00 0.00 0.00 38 1018.9
20260508150057 62 298 0.0 5.0 0.00 0.00 0.00 40 1018.9
20260508144557 62 227 2.0 4.0 0.00 0.00 0.00 40 1019.0
20260508143058 61 160 5.0 8.0 0.00 0.00 0.00 39 1019.3
20260508141603 61 126 2.0 8.0 0.00 0.00 0.00 40 1019.3
20260508140048 60 175 3.0 7.0 0.00 0.01 0.00 37 1019.3
20260508134545 59 166 1.0 7.0 0.00 0.01 0.00 40 1019.3
20260508133041 59 180 0.0 0.0 0.00 0.01 0.00 44 1019.3
20260508131546 58 294 0.0 0.0 0.00 0.01 0.00 54 1019.3
20260508130039 56 17 0.0 0.0 0.00 0.04 0.00 54 1019.2
20260508124536 53 340 0.0 1.0 0.00 0.04 0.00 61 1019.0
20260508123027 50 68 0.0 2.0 0.00 0.04 0.00 68 1018.8
20260508121524 47 61 0.0 0.0 0.00 0.04 0.00 80 1018.7
20260508120021 46 22 0.0 0.0 0.00 0.11 0.00 81 1018.5
20260508114518 45 28 0.0 0.0 0.00 0.11 0.00 81 1018.3
20260508113020 45 26 0.0 0.0 0.00 0.11 0.00 80 1017.9
20260508111520 44 23 0.0 0.0 0.00 0.11 0.00 79 1017.8
20260508110018 44 25 0.0 0.0 0.00 0.13 0.00 78 1017.5
20260508104615 44 27 0.0 0.0 0.00 0.13 0.00 77 1017.3
20260508103012 44 32 0.0 0.0 0.00 0.13 0.00 75 1017.0
20260508101515 44 35 0.0 0.0 0.00 0.13 0.00 74 1016.6
20260508100012 45 33 0.0 0.0 0.00 0.14 0.13 73 1016.3
20260508094510 45 32 0.0 0.0 0.00 0.14 0.13 72 1016.3
20260508093009 45 32 0.0 0.0 0.00 0.14 0.13 71 1016.2
20260508091601 46 31 0.0 0.0 0.00 0.14 0.13 71 1016.2
20260508090115 46 29 0.0 0.0 0.00 0.14 0.13 71 1016.1
20260508084559 46 27 0.0 2.0 0.00 0.15 0.13 71 1015.8
20260508083100 46 26 0.0 2.0 0.00 0.15 0.13 71 1015.6
20260508081512 46 27 0.0 0.0 0.00 0.15 0.13 71 1015.5
20260508080011 46 27 0.0 0.0 0.00 0.15 0.13 71 1015.5
20260508074511 46 27 0.0 2.0 0.00 0.15 0.13 71 1015.5
20260508073007 46 32 0.0 0.0 0.00 0.15 0.13 70 1015.4
20260508071550 47 34 0.0 0.0 0.00 0.15 0.13 70 1015.3
20260508070048 47 36 0.0 0.0 0.00 0.16 0.13 69 1015.3
20260508064545 48 36 0.0 2.0 0.00 0.16 0.13 68 1015.2
20260508063057 48 89 0.0 1.0 0.00 0.16 0.13 67 1015.1
20260508061550 49 88 0.0 0.0 0.00 0.16 0.13 67 1015.1
20260508060049 49 87 0.0 0.0 0.00 0.21 0.13 66 1015.2
20260508054547 49 90 0.0 0.0 0.00 0.21 0.13 66 1015.1
20260508053048 49 83 0.0 1.0 0.00 0.21 0.13 66 1015.0
20260508051542 50 75 0.0 1.0 0.00 0.21 0.13 65 1015.0
20260508050041 50 74 0.0 1.0 0.00 0.27 0.13 65 1014.9
20260508044537 50 74 0.0 1.0 0.00 0.27 0.13 65 1014.8
20260508043052 50 77 0.0 0.0 0.00 0.27 0.13 65 1014.5
20260508041528 51 78 0.0 0.0 0.00 0.27 0.13 64 1014.5
20260508040034 52 80 0.0 0.0 0.00 0.27 0.13 63 1014.8
20260508034525 53 76 0.0 3.0 0.00 0.27 0.13 62 1014.6
20260508033021 53 76 0.0 0.0 0.00 0.27 0.13 61 1014.7
20260508031523 54 81 0.0 0.0 0.00 0.27 0.13 60 1014.6
20260508030025 55 79 0.0 3.0 0.00 0.34 0.13 57 1014.6
20260508024518 55 313 0.0 0.0 0.00 0.34 0.13 55 1014.2
20260508023015 56 312 0.0 0.0 0.00 0.34 0.13 55 1014.0
20260508021513 56 292 0.0 0.0 0.00 0.34 0.13 52 1013.9
20260508020012 57 144 0.0 0.0 0.00 0.42 0.13 52 1013.5
20260508014510 58 22 0.0 0.0 0.00 0.42 0.13 51 1013.3
20260508013003 59 19 0.0 2.0 0.00 0.42 0.13 47 1013.0
20260508011514 60 61 1.0 5.0 0.00 0.42 0.13 46 1012.8
20260508010010 60 214 1.0 3.0 0.00 0.52 0.13 48 1012.5
20260508004509 61 216 1.0 4.0 0.00 0.52 0.13 48 1012.2
20260508003006 61 35 0.0 4.0 0.00 0.52 0.13 47 1011.9
20260508001613 62 325 2.0 8.0 0.00 0.52 0.13 45 1011.6
20260508000054 63 326 3.0 14.0 0.00 0.52 0.13 44 1011.3
20260507234553 66 332 2.0 4.0 0.00 0.64 0.13 45 1011.4
20260507233052 67 331 0.0 4.0 0.00 0.64 0.13 43 1011.0
20260507231502 67 360 3.0 12.0 0.00 0.64 0.13 44 1010.9
20260507230005 69 310 3.0 6.0 0.00 0.65 0.13 43 1010.7
20260507224500 70 341 4.0 9.0 0.00 0.65 0.13 44 1010.0
20260507223100 71 360 6.0 12.0 0.00 0.65 0.13 43 1009.6
20260507221545 73 24 3.0 14.0 0.00 0.65 0.13 43 1009.1
20260507220047 74 337 3.0 10.0 0.00 0.65 0.13 44 1008.8
20260507214545 74 360 4.0 12.0 0.00 0.65 0.13 43 1008.6
20260507213044 75 355 7.0 12.0 0.00 0.65 0.13 43 1008.4
20260507211543 76 298 6.0 12.0 0.00 0.65 0.13 44 1008.2
20260507210041 76 346 5.0 11.0 0.00 0.65 0.13 45 1008.1
20260507204544 76 319 5.0 9.0 0.00 0.65 0.13 47 1008.0
20260507203038 75 311 4.0 9.0 0.00 0.65 0.13 58 1007.8
20260507201542 76 194 4.0 9.0 0.00 0.65 0.13 60 1007.8
20260507200035 74 14 2.0 6.0 0.00 0.65 0.13 65 1008.0
20260507194534 74 5 2.0 8.0 0.00 0.65 0.13 65 1008.0
20260507193033 75 166 5.0 9.0 0.00 0.65 0.13 63 1008.0
20260507191529 74 290 2.0 8.0 0.00 0.65 0.13 64 1008.5
20260507190030 73 197 4.0 8.0 0.00 0.65 0.13 65 1008.6
20260507184527 74 220 2.0 8.0 0.00 0.65 0.13 64 1008.5
20260507183023 74 186 4.0 10.0 0.00 0.65 0.13 63 1008.4
20260507181520 74 194 5.0 11.0 0.00 0.65 0.13 65 1008.8
20260507180016 73 175 5.0 9.0 0.00 0.68 0.13 65 1008.9